Change the Weather History Date:

Friday, April 20, 2012

  Actual Average Record
Temperature  
Mean Temperature 49 °F 49 °F  
Max Temperature 62 °F 62 °F 95 °F (1980)
Min Temperature 35 °F 36 °F 12 °F (1966)
Degree Days  
Heating Degree Days 16 16  
Month to date heating degree days 328 404  
Since 1 July heating degree days 5749 6849  
Cooling Degree Days 0 0  
Month to date cooling degree days 5 0  
Year to date cooling degree days 10 0  
Moisture  
Dew Point 40 °F    
Average Humidity 68    
Maximum Humidity 100    
Minimum Humidity 36    
Precipitation  
Precipitation T in 0.06 in 0.82 in (1920)
Month to date precipitation 2.11 1.08  
Year to date precipitation 3.99 3.32  
Snow  
Snow 0.00 in 0.10 in 3.80 in (1951)
Month to date snowfall 0.0 3.2  
Since 1 July snowfall 24.5 31.0  
Snow Depth 0.00 in    
Sea Level Pressure  
Sea Level Pressure 30.04 in    
Wind  
Wind Speed 5 mph (SW)    
Max Wind Speed 17 mph    
Max Gust Speed 21 mph    
Visibility 8 miles    
Events Fog    
T = Trace of Precipitation, MM = Missing Value Source: NWS Daily Summary

Daily Weather History Graph

Daily Weather History Graph

Search for Another Location

Airport or City:

Trip Planner

Search our weather history database for the weather conditions in past years. The results will help you decide how hot, cold, wet, or windy it might be!

Date:

Astronomy

Apr. 20, 2012 Rise Set
Actual Time 6:48 AM CDT 8:32 PM CDT
Civil Twilight 6:17 AM CDT 9:03 PM CDT
Nautical Twilight 5:39 AM CDT 9:41 PM CDT
Astronomical Twilight 4:59 AM CDT 10:21 PM CDT
Moon 6:12 AM CDT (4/20) 8:20 PM CDT (4/20)
Length of Visible Light 14h 46m
Length of Day
13h 44m
Waning Crescent, 0% of the Moon is Illuminated
Apr 20
Waning Crescent
Apr 21
New
Apr 29
First Quarter
May 5
Full
May 12
Last Quarter

Hourly Weather History & Observations

Time (CDT) Temp. Windchill Dew Point Humidity Pressure Visibility Wind Dir Wind Speed Gust Speed Precip Events Conditions
12:53 AM 42.1 °F 40.2 °F 41.0 °F 96% 30.07 in 10.0 mi SSW 3.5 mph - N/A   Overcast
1:53 AM 43.0 °F 41.3 °F 42.1 °F 97% 30.08 in 10.0 mi SW 3.5 mph - N/A   Overcast
2:37 AM 42.8 °F 41.1 °F 42.8 °F 100% 30.05 in 10.0 mi WSW 3.5 mph - N/A   Overcast
2:53 AM 43.0 °F 40.3 °F 42.1 °F 97% 30.08 in 10.0 mi WSW 4.6 mph - N/A   Overcast
3:53 AM 43.0 °F - 42.1 °F 97% 30.07 in 10.0 mi Calm Calm - N/A   Overcast
4:17 AM 42.8 °F - 42.8 °F 100% 30.05 in 10.0 mi Calm Calm - N/A   Overcast
4:30 AM 42.8 °F - 41.0 °F 93% 30.05 in 10.0 mi Calm Calm - N/A   Overcast
4:53 AM 42.1 °F - 41.0 °F 96% 30.08 in 10.0 mi Calm Calm - N/A   Overcast
5:00 AM 42.8 °F - 41.0 °F 93% 30.05 in 10.0 mi Calm Calm - N/A   Overcast
5:45 AM 41.0 °F - 39.2 °F 93% 30.06 in 10.0 mi Calm Calm - N/A   Mostly Cloudy
5:53 AM 39.9 °F - 39.0 °F 97% 30.09 in 10.0 mi Calm Calm - N/A   Mostly Cloudy
6:09 AM 41.0 °F - 41.0 °F 100% 30.06 in 10.0 mi Calm Calm - N/A   Overcast
6:50 AM 39.2 °F 37.0 °F 39.2 °F 100% 30.06 in 1.5 mi SSE 3.5 mph - N/A   Partly Cloudy
6:53 AM 39.9 °F - 39.9 °F 100% 30.09 in 0.5 mi Calm Calm - N/A Fog Fog
7:01 AM 37.4 °F - 37.4 °F 100% 30.07 in 0.2 mi Calm Calm - N/A Fog Fog
7:07 AM 37.4 °F - 37.4 °F 100% 30.07 in 0.2 mi Calm Calm - N/A Fog Fog
7:53 AM 41.0 °F 39.0 °F 41.0 °F 100% 30.11 in 0.2 mi SW 3.5 mph - N/A Fog Fog
8:53 AM 43.0 °F 38.8 °F 42.1 °F 97% 30.12 in 0.2 mi WSW 6.9 mph - N/A Fog Fog
9:02 AM 42.8 °F 40.1 °F 42.8 °F 100% 30.09 in 0.8 mi SW 4.6 mph - N/A   Overcast
9:17 AM 42.8 °F 39.3 °F 42.8 °F 100% 30.10 in 1.8 mi WSW 5.8 mph - N/A   Overcast
9:21 AM 42.8 °F 39.3 °F 42.8 °F 100% 30.09 in 3.0 mi WSW 5.8 mph - N/A   Overcast
9:38 AM 44.6 °F 43.1 °F 44.6 °F 100% 30.09 in 10.0 mi WSW 3.5 mph - N/A   Overcast
9:53 AM 45.0 °F 43.5 °F 43.0 °F 93% 30.12 in 10.0 mi WSW 3.5 mph - N/A   Mostly Cloudy
10:03 AM 48.2 °F - 42.8 °F 82% 30.09 in 10.0 mi Calm Calm - N/A   Partly Cloudy
10:53 AM 50.0 °F - 39.9 °F 68% 30.12 in 10.0 mi WNW 4.6 mph - N/A   Clear
11:53 AM 52.0 °F - 39.9 °F 63% 30.11 in 10.0 mi West 4.6 mph - N/A   Partly Cloudy
12:53 PM 54.0 °F - 39.0 °F 57% 30.09 in 10.0 mi WSW 9.2 mph - N/A   Scattered Clouds
1:53 PM 57.9 °F - 39.0 °F 49% 30.06 in 10.0 mi Variable 4.6 mph - N/A   Scattered Clouds
2:53 PM 59.0 °F - 37.0 °F 44% 30.03 in 10.0 mi SW 8.1 mph - N/A   Mostly Cloudy
3:53 PM 60.1 °F - 35.1 °F 39% 30.01 in 10.0 mi Variable 3.5 mph - N/A   Partly Cloudy
4:53 PM 60.1 °F - 35.1 °F 39% 29.98 in 10.0 mi Variable 5.8 mph - N/A   Partly Cloudy
5:53 PM 60.1 °F - 33.1 °F 36% 29.97 in 10.0 mi SSW 5.8 mph - N/A   Clear
6:53 PM 59.0 °F - 35.1 °F 41% 29.95 in 10.0 mi South 3.5 mph - N/A   Partly Cloudy
7:53 PM 55.9 °F - 39.9 °F 55% 29.91 in 10.0 mi ESE 8.1 mph - N/A   Overcast
8:53 PM 54.0 °F - 41.0 °F 62% 29.91 in 10.0 mi SE 9.2 mph - N/A   Overcast
9:53 PM 53.1 °F - 41.0 °F 64% 29.89 in 10.0 mi SE 11.5 mph - N/A   Mostly Cloudy
10:53 PM 52.0 °F - 41.0 °F 66% 29.86 in 10.0 mi SE 8.1 mph - N/A   Partly Cloudy
11:53 PM 53.1 °F - 39.9 °F 61% 29.83 in 10.0 mi SSE 15.0 mph - N/A   Overcast